Home   Weather   Nagoya   Past weeks

Flag for Japan Past Weather in Nagoya, Japan — Yesterday and Last 2 Weeks

Now
43 °F

Passing clouds.


Feels Like: 34 °F
Forecast: 28 / 49 °F
Wind: 20 mph from Northwest

Location: Nagoya Airport

Current Time: Jan 18, 2017 at 2:25:18 am

Latest Report: Jan 18, 2017 at 2:00 am


Visibility: N/A

Pressure: 30.39 "Hg

Humidity: 53%

Dew Point: 27 °F

Location of NagoyaLocation

Past Weather in Nagoya — Graph

°F

Nagoya Temperature Yesterday

Maximum temperature yesterday: 46 °F (at 2:00 pm)
Minimum temperature yesterday: 39 °F (at 2:30 am)
Average temperature yesterday: 43 °F

High & Low Weather Summary for the Past Weeks

 TemperatureHumidityPressure
High55 °F (Jan 9, 1:00 pm)93% (Jan 14, 4:00 pm)30.39 "Hg (Jan 14, 4:00 pm)
Low30 °F (Jan 15, 1:00 am)25% (Jan 6, 3:30 pm)29.59 "Hg (Jan 8, 10:30 pm)
Average44 °F63%29.97 "Hg
* Reported Jan 3 1:00 am — Jan 18 1:30 am, Nagoya, Weather by CustomWeather, © 2017

Note: Actual official high and low records may vary slightly from our data, if they occured in-between our weather recording intervals... More about our weather records

Advertising

Nagoya Weather History for the Previous 24 Hours

Scroll right to see more
 ConditionsComfort  
Time TempWeatherWind HumidityBarometerVisibility
1:30 am
Wed, Jan 18
43 °FPassing clouds.20 mph49%30.39 "HgN/A
1:00 am43 °FPassing clouds.21 mph49%30.39 "HgN/A
12:30 am41 °FPassing clouds.21 mph49%30.39 "HgN/A
12:00 am41 °FPassing clouds.21 mph49%30.39 "HgN/A
11:30 pm
Tue, Jan 17
41 °FPassing clouds.21 mph49%30.39 "HgN/A
11:00 pm43 °FPassing clouds.21 mph53%30.39 "HgN/A
10:30 pm43 °FPassing clouds.20 mph53%30.39 "HgN/A
10:00 pm43 °FPassing clouds.21 mph53%30.39 "HgN/A
9:30 pm43 °FPassing clouds.21 mph57%30.39 "HgN/A
9:00 pm43 °FPassing clouds.20 mph53%30.36 "HgN/A
8:30 pm45 °FPassing clouds.22 mph49%30.36 "HgN/A
8:00 pm45 °FPassing clouds.23 mph49%30.36 "HgN/A
7:30 pm43 °FPassing clouds.25 mph53%30.36 "HgN/A
7:00 pm45 °FPassing clouds.24 mph53%30.36 "HgN/A
6:30 pm45 °FPassing clouds.24 mph57%30.33 "HgN/A
6:00 pm45 °FPassing clouds.23 mph57%30.33 "HgN/A
5:30 pm45 °FPassing clouds.26 mph53%30.33 "HgN/A
5:00 pm45 °FPartly sunny.26 mph53%30.30 "HgN/A
4:30 pm45 °FPartly sunny.29 mph53%30.30 "HgN/A
4:00 pm46 °FPartly sunny.28 mph50%30.30 "HgN/A
3:30 pm46 °FScattered clouds.23 mph50%30.30 "HgN/A
3:00 pm46 °FPassing clouds.26 mph50%30.27 "HgN/A
2:30 pm46 °FPassing clouds.28 mph57%30.27 "HgN/A
2:00 pm46 °FPassing clouds.26 mph53%30.27 "HgN/A
1:30 pm45 °FPassing clouds.25 mph61%30.27 "HgN/A
1:00 pm45 °FScattered clouds.28 mph66%30.27 "HgN/A
12:30 pm45 °FScattered clouds.23 mph66%30.27 "HgN/A
12:00 pm45 °FPartly sunny.24 mph66%30.30 "HgN/A
11:30 am43 °FPartly sunny.22 mph71%30.30 "HgN/A
11:00 am45 °FPartly sunny.21 mph66%30.30 "HgN/A
10:30 am45 °FPartly sunny.21 mph61%30.30 "HgN/A
10:00 am45 °FPassing clouds.14 mph61%30.30 "HgN/A
9:30 am43 °FPassing clouds.16 mph66%30.30 "HgN/A
9:00 am43 °FPassing clouds.20 mph71%30.27 "HgN/A
8:30 am41 °FPassing clouds.21 mph76%30.27 "HgN/A
8:00 am41 °FPassing clouds.23 mph76%30.27 "HgN/A
7:30 am39 °FPassing clouds.24 mph81%30.27 "HgN/A
7:00 am39 °FPassing clouds.25 mph81%30.27 "HgN/A
6:30 am41 °FPassing clouds.21 mph76%30.24 "HgN/A
6:00 am41 °FPassing clouds.16 mph70%30.21 "HgN/A
5:30 am41 °FPassing clouds.18 mph70%30.21 "HgN/A
5:00 am41 °FPassing clouds.18 mph70%30.21 "HgN/A
4:30 am41 °FPassing clouds.23 mph76%30.18 "HgN/A
4:00 am41 °FPassing clouds.23 mph76%30.18 "HgN/A
3:30 am39 °FPassing clouds.23 mph81%30.18 "HgN/A
3:00 am39 °FPassing clouds.24 mph81%30.15 "HgN/A
2:30 am39 °FPassing clouds.24 mph81%30.15 "HgN/A
2:00 am41 °FPassing clouds.23 mph76%30.15 "HgN/A
Weather by CustomWeather, © 2017

See weather overviewHow to use our weather pages